This is the latest recevied weather packets stored in our database for station/object GW1542. If no packets are shown the sender has not sent any weather packets the latest 10 day(s).
| Time | Temp. | Humidity | Pressure | Rain* | Wind** | Luminosity | Snow |
|---|---|---|---|---|---|---|---|
| 1777481668 | 15.56° C | 78% | 1012.1 hPa | 0 mm | - | - | - |
| 1777480578 | 16.11° C | 83% | 1011.8 hPa | 0 mm | - | - | - |
| 1777480229 | 15.56° C | 83% | 1012.1 hPa | 0 mm | - | - | - |
| 1777477711 | 15° C | 85% | 1012.8 hPa | 0 mm | - | - | - |
| 1777476262 | 15° C | 87% | 1013.2 hPa | 0 mm | - | - | - |
| 1777475927 | 15° C | 89% | 1013.2 hPa | 0 mm | - | - | - |
| 1777474460 | 14.44° C | 91% | 1013.2 hPa | 0 mm | - | - | - |
| 1777469809 | 13.33° C | 91% | 1014.2 hPa | 0 mm | - | - | - |
| 1777469074 | 12.78° C | 92% | 1014.5 hPa | 0 mm | - | - | - |
| 1777467288 | 11.67° C | 95% | 1013.8 hPa | 0 mm | - | - | - |
| 1777466905 | 12.22° C | 95% | 1013.5 hPa | 0 mm | - | - | - |
| 1777465467 | 11.67° C | 99% | 1013.5 hPa | 0 mm | - | - | - |
| 1777464764 | 11.11° C | 99% | 1013.5 hPa | 0 mm | - | - | - |
| 1777464393 | 11.11° C | 99% | 1013.5 hPa | 0 mm | - | - | - |
| 1777462580 | 10.56° C | 99% | 1014.2 hPa | 0 mm | - | - | - |
| 1777453241 | 10° C | 98% | 1015.2 hPa | 0 mm | - | - | - |
| 1777452889 | 10° C | 98% | 1015.2 hPa | 0 mm | - | - | - |
| 1777452153 | 10.56° C | 98% | 1015.2 hPa | 0 mm | - | - | - |
| 1777448568 | 10.56° C | 97% | 1015.2 hPa | 0 mm | - | - | - |
| 1777448179 | 10.56° C | 96% | 1015.5 hPa | 0 mm | - | - | - |
| 1777445669 | 11.67° C | 96% | 1014.9 hPa | 0 mm | - | - | - |
| 1777445330 | 11.11° C | 96% | 1015.2 hPa | 0 mm | - | - | - |
| 1777443878 | 11.67° C | 95% | 1015.5 hPa | 0 mm | - | - | - |
| 1777442072 | 12.78° C | 93% | 1016.2 hPa | 0 mm | - | - | - |
| 1777441332 | 12.78° C | 94% | 1016.5 hPa | 0 mm | - | - | - |
* Rain since midnight (hover to see other rain measurements)
** Current wind speed in m/s (hover to see current wind gust speed)